Regional Weather Roundup
Issued by NWS Upton, NY

Current Version | Previous Version | Graphics & Text | Print | Product List | Glossary Off
Versions: 1 2 3 4 5 6 7 8 9 10 11 12 13 14 15 16 17 18 19 20 21 22 23 24 25 26 27 28 29 30 31 32 33 34 35 36 37 38 39 40 41 42 43 44 45 46 47 48 49 50

312
ASUS41 KOKX 101908
RWROKX

REGIONAL WEATHER ROUNDUP
NATIONAL WEATHER SERVICE NEW YORK NY
200 PM EST SUN DEC 10 2017

NOTE: "FAIR" INDICATES FEW OR NO CLOUDS BELOW 12,000 FEET WITH NO
SIGNIFICANT WEATHER AND/OR OBSTRUCTIONS TO VISIBILITY.

NYZ071-072-176-178-NJZ106-104-102000-
NEW YORK CITY METRO AREA

CITY           SKY/WX    TMP DP  RH WIND       PRES   REMARKS
Central Park     N/A     38  23  55 VRB5G17   29.93S WCI  34
Bronx Bot Gard   N/A     37  21  52 W24       29.92S WCI  26
Bronx Lehman C   N/A     37  23  56 W8          N/A  WCI  31
LaGuardia APRT MOSUNNY   40  24  53 W14       29.91S WCI  32
Queens College   N/A     37  25  60 W12         N/A  WCI  30
Kennedy INTL   MOSUNNY   38  25  59 W16G24    29.93S WCI  29
Breezy Point     N/A     37 N/A N/A W13G23      N/A  WCI  29
Brooklyn Coll    N/A     37  25  60 W13         N/A  WCI  29
Staten Island    N/A     37  25  60 W13         N/A  WCI  29
Newark/Liberty MOSUNNY   39  23  52 W15       29.92S WCI  31
Teterboro      SUNNY     39  23  52 W9        29.90F WCI  33
$$

NYZ177-179-078>081-102000-
LONG ISLAND NEW YORK

CITY           SKY/WX    TMP DP  RH WIND       PRES   REMARKS
Jones Beach      N/A     37 N/A N/A W16         N/A  WCI  28
Wantagh          N/A     37  27  65 W10         N/A  WCI  30
Matinecock PT    N/A     39 N/A N/A W23G29      N/A  WCI  29
Farmingdale    SUNNY     38  24  57 W9G21     29.90S WCI  31
MacArthur/ISP  MOSUNNY   38  25  59 W16       29.89S WCI  29
Shirley        SUNNY     39  27  62 W12       29.90R WCI  32
Mt Sinai Harb    N/A    N/A N/A N/A W8G16       N/A
Westhampton    SUNNY     38  25  59 W14G24    29.90  WCI  30
East Hampton   FAIR      38  25  58 W9G20     29.87R WCI  32
Southold         N/A     39  28  65 W7          N/A  WCI  34
Montauk          N/A     41  28  60 W12G24    29.87R
$$

NYZ052-065-067-102000-
HUDSON VALLEY

CITY           SKY/WX    TMP DP  RH WIND       PRES   REMARKS
White Plains   MOSUNNY   36  21  54 W10       29.87S WCI  28
Larchmont Harb   N/A     37 N/A N/A W15         N/A  WCI  28
Croton On Huds   N/A     37 N/A N/A W8          N/A  WCI  31
Somers           N/A     34  23  64 W6          N/A  WCI  29
Brewster         N/A     36  21  55 W7          N/A  WCI  30
Newburgh       PTSUNNY   36  27  69 W14       29.87S WCI  27
Montgomery     MOSUNNY   37  20  50 W14       29.86S WCI  28
Otisville        N/A     34  21  60 W5          N/A  WCI  30
Warwick          N/A     36  25  64 W10         N/A  WCI  28
Suffern          N/A     36  23  60 W7          N/A  WCI  30
Poughkeepsie   MOSUNNY   36  21  54 W15       29.87R WCI  27
Albany         PTSUNNY   36  20  52 SW8       29.83R WCI  30
$$

NJZ001-105-106-008-010-013-015-019>022-104-102000-
NEW JERSEY

CITY           SKY/WX    TMP DP  RH WIND       PRES   REMARKS
Newark/Liberty MOSUNNY   39  23  52 W15       29.92S WCI  31
Teterboro      SUNNY     39  23  52 W9        29.90F WCI  33
Caldwell       MOSUNNY   38  21  50 VRB6G18   29.91S WCI  33
Somerville     CLOUDY    37  24  59 W8        29.92S WCI  31
Linden         FAIR      39  23  53 W10G18    29.93S WCI  32
Perth Amboy      N/A     37 N/A N/A W17         N/A  WCI  28
Sussex         CLOUDY    37  20  50 W8G18     29.88R WCI  31
Andover        NOT AVBL
Trenton        PTSUNNY   38  23  55 W12G18    29.95S WCI  30
Millville      MOSUNNY   38  27  64 W14G23    30.00S WCI  30
Atlantic City  SUNNY     40  25  55 W16       29.98S WCI  31
Wrightstown    SUNNY     38  24  56 W14       29.94R WCI  29
Toms River     SUNNY     38  27  64 W12       29.97R WCI  30
Belmar         SUNNY     37  24  59 W10       29.95R WCI  30
$$

PAZ047>061-062-071-102000-
EASTERN PENNSYLVANIA

CITY           SKY/WX    TMP DP  RH WIND       PRES   REMARKS
Philadelphia   MOSUNNY   38  21  50 W18       29.99S WCI  28
Allentown      CLOUDY    37  21  52 W18G25    29.93S WCI  27
Scranton       CLOUDY    33  24  69 SW10      29.87R WCI  25
$$

CTZ002-004>006-009-010-012-RIZ004-006-007-MAZ004-011-015-102000-
SOUTHERN NEW ENGLAND
 IN CT

CITY           SKY/WX    TMP DP  RH WIND       PRES   REMARKS
Bradley INTL   PTSUNNY   37  21  52 W7        29.84R WCI  32
Hartford       SUNNY     38  23  55 SW10      29.85R WCI  31
Danbury        CLOUDY    36  22  56 W12G23    29.88R WCI  28
Wtrbury/Oxford MOSUNNY   35  21  56 W10G16    29.85R WCI  27
Norwalk Harbor   N/A     37 N/A N/A W18         N/A  WCI  27
Bridgeport     MOSUNNY   40  25  55 W10G21    29.88R WCI  33
Meriden        SUNNY     38  21  50 NW8       29.86R WCI  32
New Haven      MOSUNNY   40  21  46 W9G18     29.87R WCI  34
Chester        FAIR      41  21  45 W7G17     29.84R
Groton         SUNNY     39  25  57 W9        29.85R WCI  33
Wilimantic     MOSUNNY   38  25  59 W8        29.84S WCI  32

 IN RI

CITY           SKY/WX    TMP DP  RH WIND       PRES   REMARKS
Providence     MOSUNNY   38  25  59 W13       29.84R WCI  30
Block Island     N/A    N/A N/A N/A MISG        N/A
Westerly       SUNNY     40  27  59 W9        29.85R WCI  34
 IN MA

CITY           SKY/WX    TMP DP  RH WIND       PRES   REMARKS
Boston         MOSUNNY   37  24  59 W20G26    29.80R WCI  27
Worcester      MOSUNNY   32  21  64 W14       29.77R WCI  22
Westfield      CLOUDY    36  22  56 W15G22    29.82S WCI  27
Provincetown   SUNNY     39  28  64 W16       29.81  WCI  30
Nantucket      SUNNY     40  29  64 W16       29.82S WCI  31
$$

ANZ330-335-338-340-345-350-353-355-102000-
COASTAL MARINE OBSERVATIONS


STATION/POSITION TIME  SKY/WX   TEMP    WIND        PRES    VSBY  WAVE
                                AIR SEA DIR/SP/G                  HT/PER
                 (UTC)          (F)     (DEG/KT/KT) (MB)    (MI)  (FT/S)
NY HARB ENTRANCE 1750            39 52  280/ 19/ 21 1012.6          4/10
20 S FIRE ISLAND 1750            39 53  290/ 17/ 23 1013.0          6/ 5
GREAT SOUTH BAY  1830            38 45  250/ 14/ 16   N/A
HUDSON CANYON    1750            41 56  270/ 19/ 23 1013.3          8/ 6
KINGS POINT      1830            39 46  330/ 12/ 15 1013.5
EXECUTION ROCKS  1830            41     240/ 16/ 23   N/A
WESTERN LI SOUND 1749            40     260/ 16/ 21   N/A           1/ 3
CENTRAL LI SOUND 1800            40     270/ 17/ 23   N/A           3
ROBBINS REEF     1830            38     260/ 19/ 22 1013.6
$$


>>>>>>>>>>>>>>>>>>>>>>>>>>>> KEY <<<<<<<<<<<<<<<<<<<<<<<<<<<
>                                                          <
>     SKY/WX - Sky Condition/Present Weather               <
>     TMP    - Temperature in Fahrenheit                   <
>     DP     - Dew Point in Fahrenheit                     <
>     RH     - Relative Humidity in Percent                <
>     WIND   - Direction (from) and Speed in MPH           <
>     PRES   - Mean Sea Level Pressure (inches of Hg)      <
>     WCI    - Wind Chill Index                            <
>     VSB    - VISIBILITY IN MILES                         <
>     HX     - HEAT INDEX                                  <
>     TC     - TEMPERATURE IN CELSIUS                      <
>     VRB    - VARIABLE WIND DIRECTION                     <
>                                                          <
>>>>>>>>>>>>>>>>>>>>>>>>>>>> KEY <<<<<<<<<<<<<<<<<<<<<<<<<<<




USA.gov is the U.S. government's official web portal to all federal, state and local government web resources and services.